TimeEST,TemperatureF,Dew PointF,Humidity,Sea Level PressureIn,VisibilityMPH,Wind Direction,Wind SpeedMPH,Gust SpeedMPH,PrecipitationIn,Events,Conditions,WindDirDegrees,DateUTC
12:53 AM,-9999,-9999,N/A,30.13,10.0,NE,5.8,-,N/A,,Clear,40,2012-11-09 05:53:00
1:53 AM,-9999,-9999,N/A,30.12,10.0,NE,4.6,-,N/A,,Clear,50,2012-11-09 06:53:00
2:53 AM,-9999,-9999,N/A,30.12,10.0,NE,5.8,-,N/A,,Scattered Clouds,40,2012-11-09 07:53:00
3:53 AM,-9999,-9999,N/A,30.12,10.0,NE,11.5,-,N/A,,Scattered Clouds,40,2012-11-09 08:53:00
4:53 AM,-9999,-9999,N/A,30.12,10.0,NE,11.5,-,N/A,,Clear,40,2012-11-09 09:53:00
5:53 AM,-9999,-9999,N/A,30.14,10.0,NNE,6.9,-,N/A,,Overcast,20,2012-11-09 10:53:00
5:56 AM,64.4,51.8,64,30.14,10.0,NNE,9.2,-,N/A,,Mostly Cloudy,20,2012-11-09 10:56:00
6:53 AM,64.4,51.1,62,30.15,10.0,NNE,10.4,-,N/A,,Scattered Clouds,20,2012-11-09 11:53:00
7:53 AM,66.2,54.0,65,30.17,10.0,NNE,11.5,18.4,N/A,,Partly Cloudy,30,2012-11-09 12:53:00
8:53 AM,66.2,55.9,69,30.18,10.0,NE,12.7,-,N/A,,Partly Cloudy,40,2012-11-09 13:53:00
9:53 AM,68.0,57.0,68,30.19,10.0,NNE,15.0,-,N/A,,Partly Cloudy,30,2012-11-09 14:53:00
10:53 AM,69.8,59.0,68,30.19,10.0,NE,12.7,20.7,N/A,,Partly Cloudy,40,2012-11-09 15:53:00
11:53 AM,69.8,57.9,66,30.17,10.0,NE,17.3,21.9,N/A,,Partly Cloudy,40,2012-11-09 16:53:00
12:53 PM,71.6,57.9,62,30.14,10.0,NE,16.1,23.0,N/A,,Partly Cloudy,40,2012-11-09 17:53:00
1:53 PM,71.6,57.9,62,30.12,10.0,NE,17.3,24.2,N/A,,Partly Cloudy,40,2012-11-09 18:53:00
2:53 PM,71.6,55.9,58,30.11,10.0,NE,11.5,20.7,N/A,,Partly Cloudy,50,2012-11-09 19:53:00
3:53 PM,71.6,55.0,56,30.11,10.0,ENE,16.1,24.2,N/A,,Partly Cloudy,70,2012-11-09 20:53:00
4:53 PM,71.6,52.0,50,30.11,10.0,ENE,13.8,20.7,N/A,,Partly Cloudy,60,2012-11-09 21:53:00
5:53 PM,69.8,53.1,55,30.13,10.0,ENE,12.7,-,N/A,,Partly Cloudy,70,2012-11-09 22:53:00
6:53 PM,66.2,53.1,63,30.13,10.0,ENE,13.8,19.6,N/A,,Partly Cloudy,60,2012-11-09 23:53:00
7:53 PM,66.2,52.0,60,30.15,10.0,NE,9.2,-,N/A,,Partly Cloudy,50,2012-11-10 00:53:00
8:53 PM,66.2,54.0,65,30.17,10.0,NE,8.1,19.6,N/A,,Partly Cloudy,50,2012-11-10 01:53:00
9:53 PM,66.2,54.0,65,30.17,10.0,NE,10.4,18.4,N/A,,Partly Cloudy,40,2012-11-10 02:53:00
10:53 PM,-9999,-9999,N/A,30.17,10.0,NE,10.4,16.1,N/A,,Overcast,40,2012-11-10 03:53:00
11:53 PM,-9999,-9999,N/A,30.16,10.0,NE,12.7,-,N/A,,Overcast,40,2012-11-10 04:53:00